Погода в Печорах

Россия / Псковская область     57°48′50″N   27°36′32″E
темп.,
°C
ветер,
м/с
пор.,
м/с
влажн.,
%
обл.,
%
осадки,
мм/ч
давл.,
гПа
погр.,
м
17 мая, пн
пн1700:00+11юв22885 0.0 101037
03:00+10юв389618 0.0 1009159
06:00+11юв4129041 0.0 1009335
09:00+17юв51071100 0.0 1009568
12:00+18юв4976100 0.3 1008842
15:00+20ююв5867100 1.3 10081172
18:00+15ю3990100 2.4 1008598
21:00+13сз1197100 5.9 100625
18 мая, вт
вт1800:00+13ссв4899100 10.4 1004337
03:00+12с3899100 11.3 1003507
06:00+13св2599100 1.6 1001283
09:00+14ююв1699100 2.3 1000367
12:00+15юз2597100 0.6 1002404
15:00+16зюз2390100 0.8 1003499
18:00+15сз3492100 0.2 1003392
21:00+12ссз3795100 0.2 1004386
19 мая, ср
ср1900:00+11с2796100 0.0 1005356
03:00+10ссз3895100 0.1 1005384
06:00+10ссз3895100 0.3 1005372
09:00+10ссз3795100 1.0 1006312
12:00+10ссз3695100 0.3 1006321
15:00+11ссз3693100 0.3 1007378
18:00+11ссз3692100 0.0 1006337
21:00+10сз2693100 0.0 1006222
20 мая, чт
чт2000:00+10ссз3892100 0.0 1006321
03:00+10ссз3995100 0.0 1005418
06:00+9сз4898100 6.2 1004400
09:00+9сз3799100 12.8 1004373
12:00+11ссз3697100 1.9 1003434
15:00+11сз2699100 3.7 1004523
18:00+10зсз41097100 0.7 1003703
21:00+9зсз51297100 1.1 1003772
21 мая, пт
пт2100:00+9з51295100 0.9 1004745
03:00+7зюз6149298 1.1 1005557
06:00+7зюз61590100 0.1 1007611
09:00+11зюз6127379 0.1 1008686
12:00+15зюз5849100 0.0 10101653
15:00+17зюз574399 0.0 10112431
18:00+13з386375 0.0 1011657
21:00+10зюз38755 0.0 1012307